Home > Time Zones > World Clock > Weather > Russia > Perm > Past weeks

Flag for Russia Weather past 2 weeks in Perm, Russia

Now
55 °F

Passing clouds.


Feels Like: 55 °F
Forecast: 49 / 77 °F
Wind: 3 mph from West

Location: Perm'/Bolshoe Savino

Current Time: May 26, 2015 at 9:14:04 AM

Latest Report: May 26, 2015 at 8:30 AM


Visibility: N/A

Pressure: 30.18 "Hg

Humidity: 63%

Dew point: 43 °F

Location of PermLocation

Historic Weather in Perm — Graph

°F

Perm temperature yesterday

Maximum temperature yesterday: 66 °F (at 5:30 PM)
Minimum temperature yesterday: 43 °F (at 1:30 AM)
Average temperature yesterday: 55 °F

Past Weeks' High & Low Weather Summary

 TemperatureHumidityPressure
High73 °F (May 23, 1:30 PM)100% (May 16, 9:00 PM)30.24 "Hg (May 16, 9:00 PM)
Low39 °F (May 20, 5:00 AM)12% (May 22, 3:30 PM)29.27 "Hg (May 17, 2:00 PM)
Average56 °F65%29.83 "Hg
* Reported May 11 8:00 AM — May 26 8:00 AM, Perm, Weather by CustomWeather, © 2015

Note: Actual official high and low records may vary slightly from our data, if they occured in-between our weather recording intervals... More about our weather records

Advertising

Perm weather history for previous 24 hours

 ConditionsComfort  
Time TempWeatherWind HumidityBarometerVisibility
8:00 AM
Tue, May 26
52 °FSunny.3 mph77%30.18 "Hg10 mi
7:30 AM48 °FSunny.3 mph87%30.15 "Hg10 mi
7:00 AM46 °FSunny.3 mph82%30.15 "Hg10 mi
6:30 AM43 °FClear.3 mph93%30.15 "Hg10 mi
6:00 AM41 °FClear.6 mph93%30.15 "Hg10 mi
5:30 AM39 °FClear.3 mph93%30.15 "Hg10 mi
5:00 AM39 °FClear.6 mph93%30.15 "Hg10 mi
4:30 AM39 °FClear.6 mph93%30.12 "Hg10 mi
4:00 AM41 °FClear.6 mph93%30.12 "Hg10 mi
3:30 AM41 °FClear.6 mph93%30.12 "Hg10 mi
3:00 AM43 °FClear.6 mph87%30.12 "Hg10 mi
2:30 AM43 °FClear.6 mph87%30.12 "Hg10 mi
1:30 AM46 °FClear.1 mph82%30.12 "Hg10 mi
1:00 AM46 °FClear.No wind76%30.09 "Hg10 mi
12:30 AM48 °FClear.1 mph71%30.09 "Hg10 mi
12:00 AM50 °FClear.6 mph71%30.07 "Hg10 mi
11:30 PM
Mon, May 25
52 °FSunny.8 mph67%30.07 "Hg10 mi
11:00 PM52 °FPassing clouds.8 mph67%30.04 "HgN/A
10:30 PM54 °FSunny.3 mph58%30.04 "Hg10 mi
10:00 PM57 °FSunny.3 mph51%30.01 "Hg10 mi
9:30 PM57 °FSunny.3 mph51%30.01 "Hg10 mi
9:00 PM61 °FSunny.3 mph48%30.01 "Hg10 mi
8:30 PM63 °FScattered clouds.6 mph42%29.98 "HgN/A
8:00 PM64 °FScattered clouds.8 mph40%29.98 "HgN/A
7:30 PM64 °FScattered clouds.13 mph43%29.98 "HgN/A
7:00 PM66 °FScattered clouds.13 mph43%29.95 "HgN/A
6:30 PM66 °FScattered clouds.13 mph46%29.95 "HgN/A
6:00 PM66 °FScattered clouds.8 mph60%29.95 "HgN/A
5:30 PM66 °FPartly sunny.13 mph60%29.95 "HgN/A
5:00 PM64 °FPartly sunny.10 mph64%29.92 "HgN/A
4:30 PM64 °FPartly sunny.13 mph68%29.92 "HgN/A
4:00 PM63 °FPartly sunny.13 mph73%29.95 "HgN/A
3:30 PM61 °FScattered clouds.13 mph83%29.92 "HgN/A
3:00 PM59 °FPartly sunny.17 mph82%29.95 "HgN/A
2:30 PM59 °FPartly sunny.15 mph77%29.95 "HgN/A
2:00 PM59 °FPartly sunny.13 mph77%29.95 "HgN/A
1:30 PM57 °FSprinkles. Partly sunny.15 mph77%29.95 "HgN/A
1:00 PM59 °FPartly sunny.13 mph72%29.92 "HgN/A
12:30 PM59 °FPartly sunny.6 mph68%29.92 "HgN/A
12:00 PM57 °FPartly sunny.6 mph72%29.95 "HgN/A
11:30 AM55 °FPartly sunny.8 mph77%29.95 "HgN/A
11:00 AM55 °FPartly sunny.3 mph77%29.95 "HgN/A
10:30 AM54 °FSprinkles. Partly sunny.6 mph77%29.95 "HgN/A
10:00 AM54 °FPartly sunny.6 mph77%29.95 "HgN/A
9:30 AM54 °FPartly sunny.6 mph77%29.95 "HgN/A
Weather by CustomWeather, © 2015

See weather overviewHow to use our weather pages